HTV-7 (KOUNOTORI 7) (43630 NORAD) Tracking and Keplerian Element Data

This shows tracking and keplerian element data for the satellite.

Feedback or suggestion? Click here.




ElementValue
Catalog43630
NameHTV-7 (KOUNOTORI 7)
Epoch Orbit761
Epoch Day314.65238315
Epoch Year2018
RAAN8.7198
Inclination51.6368
Eccentricity0.000818
Argument of Perigee267.429
Mean Anonmoly218.8982
Mean Motion15.61761615
Decay Rate8.446E-05
L11 43630U 18073A 18314.65238315 .00008446 00000-0 10157-3 0 9994
L22 43630 51.6368 8.7198 0008180 267.4290 218.8982 15.61761615 7618

Live tracking and technical data element details for HTV-7 (KOUNOTORI 7) (NORAD 43630). HTV-7 (KOUNOTORI 7) can be tracked NOW for your location showing map with azimuth and elevation plus other details from your city location.

Track the satellite on the map from your city or location and see movement details for azimuth, elevation, latitude, longitude, range, height, and movement on the map or in text.







IsCatalogInMostPopularTable: catalog: 43630, numindb: 18
Update: records affected: 1



GetName: 43630 HTV-7 (KOUNOTORI 7)

Hit Count: updated at: Tue, 20 Nov 2018 11:25:04 GMT